Flag Weather past 2 weeks in Lucknow, Uttar Pradesh, India

Now
57 °F

Haze.


Feels Like: 57 °F
Forecast: 56 / 80 °F
Wind: No wind

Location: Lucknow / Amausi

Current Time: Nov 24, 2014 at 11:40:55 PM

Latest Report: Nov 24, 2014 at 11:00 PM


Visibility: 1 mi

Pressure: 30.01 "Hg

Humidity: 82%

Dew point: 52 °F

Location of LucknowLocation

Historic Weather in Lucknow — Graph

°F

Lucknow temperature yesterday

Maximum temperature yesterday: 81 °F (at 2:30 PM)
Minimum temperature yesterday: 50 °F (at 6:00 AM)
Average temperature yesterday: 64 °F

Past Weeks' High & Low Weather Summary

 TemperatureHumidityPressure
High88 °F (Nov 10, 1:30 PM)94% (Nov 13, 4:00 AM)30.80 "Hg (Nov 13, 4:00 AM)
Low50 °F (Nov 17, 5:30 AM)24% (Nov 15, 2:30 PM)29.86 "Hg (Nov 10, 2:00 PM)
Average69 °F58%29.96 "Hg
* Reported Nov 9 10:00 PM — Nov 24 10:00 PM, Lucknow, Weather by CustomWeather, © 2014

Note: Actual official high and low records may vary slightly from our data, if they occured in-between our weather recording intervals... More about our weather records

Advertising

Lucknow weather history for previous 24 hours

 ConditionsComfort  
Time TempWeatherWind HumidityBarometerVisibility
10:00 PM
Nov 24
59 °FHaze.No wind77%29.98 "Hg1 mi
9:00 PM59 °FHaze.No wind72%29.98 "Hg1 mi
8:30 PM61 °FHaze.No wind68%29.98 "Hg1 mi
8:00 PM64 °FHaze.3 mph56%30.01 "Hg1 mi
7:00 PM63 °FHaze.No wind64%29.98 "Hg2 mi
6:30 PM66 °FHaze.No wind56%29.95 "Hg2 mi
5:30 PM72 °FHaze.2 mph50%29.95 "Hg2 mi
5:00 PM75 °FHaze.2 mph44%29.92 "Hg2 mi
4:30 PM77 °FHaze.3 mph36%29.92 "Hg2 mi
4:00 PM79 °FHaze.3 mph32%29.92 "Hg2 mi
3:30 PM79 °FHaze.3 mph30%29.92 "Hg2 mi
3:00 PM79 °FHaze.3 mph30%29.95 "Hg2 mi
2:30 PM79 °FHaze.3 mph30%29.95 "Hg2 mi
2:00 PM79 °FHaze.3 mph34%29.95 "Hg2 mi
1:30 PM79 °FHaze.3 mph34%29.95 "Hg2 mi
12:00 PM75 °FHaze.3 mph39%30.01 "Hg2 mi
11:30 AM75 °FHaze.2 mph39%30.01 "Hg2 mi
11:00 AM73 °FHaze.2 mph44%30.04 "Hg2 mi
9:30 AM66 °FHaze.2 mph56%30.04 "Hg1 mi
7:00 AM54 °FFog.No wind82%29.98 "Hg1 mi
6:30 AM54 °FFog.No wind82%29.98 "Hg1 mi
6:00 AM54 °FFog.No wind82%29.95 "Hg1 mi
5:30 AM54 °FFog.No wind82%29.95 "Hg1 mi
4:00 AM59 °FFog.No wind77%29.92 "Hg1 mi
3:00 AM59 °FFog.No wind77%29.92 "Hg1 mi
2:00 AM61 °FHaze.No wind72%29.92 "Hg1 mi
1:00 AM63 °FHaze.No wind64%29.95 "Hg2 mi
12:00 AM63 °FHaze.No wind64%29.95 "Hg2 mi
11:00 PM
Nov 23
64 °FHaze.No wind64%29.95 "Hg2 mi
Weather by CustomWeather, © 2014

See weather overviewHow to use our weather pages